[Iaude] MPEC R161: 2023 RV5 [a=2.23,e=0.42,i=6.3,H=20.0]
    mpec at marsden.cfa.harvard.edu 
    mpec at marsden.cfa.harvard.edu
       
    Tue Sep 12 15:29:17 EDT 2023
    
    
  
M.P.E.C. 2023-R161                           Issued 2023 September 12, 19:27 UT
     The Minor Planet Electronic Circulars contain information on unusual
         minor planets, routine data on comets and natural satellites,
         and occasional editorial announcements.  They are published
    on behalf of Division F of the International Astronomical Union by the
          Minor Planet Center, Smithsonian Astrophysical Observatory,
                          Cambridge, MA 02138, U.S.A.
			  
             Prepared using the Tamkin Foundation Computer Network
                              MPC at CFA.HARVARD.EDU
            URL https://www.minorplanetcenter.net/    ISSN 1523-6714
                                    2023 RV5                                    
Observations:
     K23R05V* C2023 09 07.41251900 50 19.114+13 29 48.71         21.81wXER161F52
     K23R05V  C2023 09 07.42346500 50 18.346+13 29 48.37         21.75wXER161F52
     K23R05V  C2023 09 07.43449700 50 17.586+13 29 47.99         22.25wXER161F52
     K23R05V  C2023 09 07.44553900 50 16.805+13 29 47.48         22.29wXER161F52
     K23R05V  C2023 09 07.52232100 50 11.438+13 29 43.96         21.84GVER161F51
     K23R05V  C2023 09 07.52313400 50 11.387+13 29 43.93         21.79GVER161F51
     K23R05V 1C2023 09 10.08875 00 47 15.49 +13 26 38.3          22.1 VXER161033
     K23R05V 1C2023 09 10.09233 00 47 15.25 +13 26 37.8          22.1 VXER161033
     K23R05V 1C2023 09 10.09592 00 47 14.99 +13 26 37.2          22.0 VXER161033
     K23R05V KC2023 09 10.27260100 47 02.76 +13 26 22.2          22.0 VuER161H21
     K23R05V KC2023 09 10.27821300 47 02.35 +13 26 22.1          22.4 VuER161H21
     K23R05V KC2023 09 10.28298400 47 02.02 +13 26 21.7                uER161H21
     K23R05V KC2023 09 11.27734600 45 50.88 +13 24 36.5          21.9 VuER161H21
     K23R05V KC2023 09 11.28296300 45 50.46 +13 24 36.3          21.9 VuER161H21
     K23R05V KC2023 09 11.28923300 45 49.96 +13 24 35.4          22.2 VuER161H21
     K23R05V  C2023 09 11.37941600 45 43.870+13 24 26.84         21.78wXER161F52
     K23R05V  C2023 09 11.39021300 45 43.052+13 24 25.64         22.38wXER161F52
     K23R05V  C2023 09 11.40101700 45 42.238+13 24 24.46         21.88wXER161F52
     K23R05V  C2023 09 11.41185900 45 41.420+13 24 23.44         22.08wXER161F52
Observer details:
033 Karl Schwarzschild Observatory, Tautenburg.  Observers S. Melnikov, C.
    Hoegner, F. Ludwig, M. Hartmann, B. Stecklum.  Measurer B. Stecklum.
    1.34-m f/3 Schmidt + CCD.
F51 Pan-STARRS 1, Haleakala.  Observers J. Bulger, K. Chambers, T. Lowe, P.
    Minguez, A. Schultz, I. Smith.  Measurers S. Chastel, J. Fairlamb, M.
    Huber, Y. Ramanjooloo, R. Wainscoat, R. Weryk.  1.8-m Ritchey-Chretien +
    CCD.
F52 Pan-STARRS 2, Haleakala.  Observers J. Bulger, T. Lowe, P. Minguez, A.
    Schultz, I. Smith.  Measurers K. Chambers, T. de Boer, J. Bulger, J.
    Fairlamb, H. Gao, M. Huber, C.-C. Lin, T. Lowe, E. Magnier, P. Minguez, Y.
    Ramanjooloo, A. Schultz, I. Smith, R. Wainscoat, R. Weryk.  1.8-m Ritchey-
    Chretien + CCD.
H21 Astronomical Research Observatory, Westfield.  Observer R. Holmes.
    Measurers T. Linder, R. Holmes, L. Horn.  0.81-m f/4.0 astrograph + CCD.
Orbital elements:
2023 RV5                                                 Earth MOID = 0.2916 AU
Epoch 2023 Sept. 13.0 TT = JDT 2460200.5                Bell                    
M  44.97364              (2000.0)            P               Q                  
n   0.29664091     Peri.  306.08423     -0.00163668     +0.99790811             
a   2.2266332      Node   323.65833     -0.87885220     -0.03226877             
e   0.4199674      Incl.    6.26101     -0.47709133     +0.05601910             
P   3.32           H   20.08          G   0.15           U   9                  
Residuals in seconds of arc
230907 F52  0.1-  0.0     230910 033  0.2+  0.6-    230911 H21  0.6-  0.4+
230907 F52  0.2-  0.1+    230910 033  0.2+  0.8-    230911 F52  0.4+  0.3-
230907 F52  0.1-  0.2+    230910 H21  0.1-  0.5-    230911 F52  0.3+  0.4-
230907 F52  0.2-  0.1+    230910 H21  0.0   0.1-    230911 F52  0.3+  0.4-
230907 F51  0.1+  0.0     230910 H21  0.3+  0.0     230911 F52  0.4+  0.2-
230907 F51  0.2+  0.0     230911 H21  0.3-  0.2+
230910 033  0.1-  0.4-    230911 H21  0.2-  0.6+
Ephemeris:
2023 RV5                 a,e,i = 2.23, 0.42, 6                   q = 1.2915
Date    TT    R. A. (2000) Decl.     Delta      r    Elong.  Phase     V
2023 08 13    01 06 13.0 +12 10 53   0.9513  1.6989   119.7    31.2    22.5
...
2023 08 28    00 59 59.7 +13 20 50   0.9152  1.7781   134.8    23.8    22.3
...
2023 09 05    00 52 53.3 +13 30 44   0.9067  1.8208   143.8    19.1    22.1
...
2023 09 11    00 46 10.8 +13 25 12   0.9072  1.8528   150.9    15.3    22.1
2023 09 12    00 44 58.4 +13 23 13   0.9080  1.8581   152.0    14.7    22.0
2023 09 13    00 43 44.6 +13 20 57   0.9089  1.8634   153.2    14.1    22.0
...
2023 09 19    00 36 02.1 +13 01 35   0.9190  1.8954   160.3    10.3    21.9
...
2023 09 27    00 25 26.8 +12 22 58   0.9452  1.9378   168.5     5.9    21.9
...
2023 10 12    00 07 47.0 +10 49 55   1.0358  2.0166   165.0     7.4    22.2
M. P. C. Staff               (C) Copyright 2023 MPC           M.P.E.C. 2023-R161
    
    
More information about the Iaude
mailing list